This is the latest recevied weather packets stored in our database for station/object NU3S-7. If no packets are shown the sender has not sent any weather packets the latest 10 day(s).
| Time | Temp. | Humidity | Pressure | Rain* | Wind** | Luminosity | Snow |
|---|---|---|---|---|---|---|---|
| 1777862663 | 8.33° C | 76% | 1013.4 hPa | 0 mm | - | - | - |
| 1777862062 | 8.89° C | 75% | 1013.5 hPa | 0 mm | - | - | - |
| 1777861500 | 9.44° C | 74% | 1013.5 hPa | 0 mm | - | - | - |
| 1777861462 | 9.44° C | 74% | 1013.5 hPa | 0 mm | - | - | - |
| 1777860860 | 9.44° C | 73% | 1013.5 hPa | 0 mm | - | - | - |
| 1777860260 | 10° C | 71% | 1013.6 hPa | 0 mm | - | - | - |
| 1777859657 | 10° C | 69% | 1013.5 hPa | 0 mm | - | - | - |
| 1777859057 | 10.56° C | 69% | 1013.4 hPa | 0 mm | - | - | - |
| 1777857256 | 11.11° C | 66% | 1013.3 hPa | 0 mm | - | - | - |
| 1777856054 | 11.67° C | 64% | 1013.2 hPa | 0 mm | - | - | - |
| 1777855452 | 12.22° C | 63% | 1013.2 hPa | 0 mm | - | - | - |
| 1777854852 | 12.22° C | 63% | 1013.4 hPa | 0 mm | - | - | - |
| 1777854251 | 12.78° C | 62% | 1013.4 hPa | 0 mm | - | - | - |
| 1777853649 | 12.78° C | 61% | 1013.4 hPa | 0 mm | - | - | - |
| 1777852456 | 13.33° C | 59% | 1013.5 hPa | 0 mm | - | - | - |
| 1777851848 | 13.89° C | 58% | 1013.6 hPa | 0 mm | - | - | - |
| 1777851248 | 13.89° C | 57% | 1013.7 hPa | 0 mm | - | - | - |
| 1777849442 | 14.44° C | 56% | 1013.7 hPa | 0 mm | - | - | - |
| 1777848867 | 14.44° C | 56% | 1013.7 hPa | 0 mm | - | - | - |
| 1777848258 | 13.89° C | 56% | 1013.8 hPa | 0 mm | - | - | - |
| 1777847704 | 14.44° C | 56% | 1014 hPa | 0 mm | - | - | - |
| 1777847061 | 14.44° C | 55% | 1014.1 hPa | 0 mm | - | - | - |
| 1777845852 | 14.44° C | 55% | 1014.1 hPa | 0 mm | - | - | - |
| 1777844638 | 15° C | 55% | 1013.8 hPa | 0 mm | - | - | - |
| 1777844065 | 15° C | 55% | 1013.7 hPa | 0 mm | - | - | - |
* Rain since midnight (hover to see other rain measurements)
** Current wind speed in m/s (hover to see current wind gust speed)